Location: Unspecified
(42.2730°N, 83.7130°W)
Time: 22:53:13
(UTC+00:00)

CZ-4C R/B - Pass Details

Date: 14 December 2025
Orbit: 485 x 1495 km, 63.4° (Epoch: 14 January)

Event Time Altitude Azimuth Distance (km) Brightness Sun altitude
Rises 22:35:35 0° 322° (NW) 3,796 5.7 -6.1°
Reaches altitude 10° 22:37:59 10° 322° (NW) 2,973 5.2 -6.5°
Maximum altitude 22:45:19 77° 238° (WSW) 1,330 3.4 -7.7°
Drops below altitude 10° 22:54:12 10° 154° (SSE) 3,565 5.4 -9.2°
Sets 22:57:20 0° 153° (SSE) 4,588 6.0 -9.8°
